Location: ??
(34.7252°N, 135.5457°E)
Time: 08:43:10
(UTC+00:00)

H-2A R/B - Pass Details

Date: 24 September 2020
Orbit: 577 x 655 km, 98.5° (Epoch: 28 October)

Event Time Altitude Azimuth Distance (km) Brightness Sun altitude
Rises 19:59:21 0° 207° (SSW) 2,889 5.2 -10.8°
Reaches altitude 10° 20:02:21 10° 230° (SW) 2,005 4.2 -10.2°
Maximum altitude 20:04:55 15° 266° (W) 1,695 3.6 -9.7°
Drops below altitude 10° 20:07:31 10° 303° (WNW) 2,038 4.2 -9.1°
Sets 20:10:37 0° 326° (NW) 2,966 5.3 -8.5°
